Regional Weather Roundup
Issued by NWS

Home | Current Version | Previous Version | Text Only | Print | Product List | Glossary On
Versions: 1 2 3 4 5 6 7 8 9 10 11 12 13 14 15 16 17 18 19 20 21 22 23 24 25 26 27 28 29 30 31 32 33 34 35 36 37 38 39 40 41 42 43 44 45 46 47 48 49 50
322
ASUS46 KSTO 271715
RWRCA

NORTHERN AND CENTRAL CA REGIONAL WEATHER ROUNDUP
NATIONAL WEATHER SERVICE SACRAMENTO CA
1000 AM PDT SAT AUG 27 2016

NOTE: FAIR INDICATES FEW OR NO CLOUDS BELOW 12,000 FEET WITH NO
SIGNIFICANT WEATHER AND/OR OBSTRUCTIONS TO VISIBILITY.

CAZ001-003-271800-
NORTHWEST AREA

CITY           SKY/WX    TMP DP  RH WIND       PRES   REMARKS
CRESCENT CITY  CLOUDY    58  53  84 SW5       30.03S
UKIAH          CLOUDY    59  53  80 E3        30.00S
$$

CAZ006-505>513-271800-
BAY AREA

CITY           SKY/WX    TMP DP  RH WIND       PRES   REMARKS
SANTA ROSA     CLOUDY    62  54  74 CALM      30.00R
SAN RAFAEL     N/A       62  MM  MM MISG
NAPA           CLOUDY    65  54  67 W9        30.00R
CONCORD        SUNNY     67  52  58 W8        30.00R
OAKLAND CITY   N/A       61  MM  MM MISG
OAKLAND        CLOUDY    64  55  72 SW5       30.02R
SAN FRAN CITY  N/A       61  MM  74 MISG
SAN FRAN ARPT  CLOUDY    63  53  70 CALM      30.02R
LIVERMORE      MOSUNNY   66  53  63 W6        29.99S
HAYWARD        CLOUDY    64  52  64 W7        30.01R
REDWOOD CITY   N/A       63  MM  72 MISG
MOFFETT ARPT   CLOUDY    64  53  67 CALM      30.02R
SAN JOSE ARPT  PTSUNNY   63  53  70 S3        30.01R
$$
CAZ034-037-514>518-271800-
CENTRAL COAST

CITY           SKY/WX    TMP DP  RH WIND       PRES   REMARKS
WATSONVILLE    CLOUDY    62  55  77 SW6       30.03R
SALINAS        CLOUDY    62  53  72 SW6       30.03R
MONTEREY       CLOUDY    61  54  77 S5        30.04R
SAN LUIS OBISP CLOUDY    65  55  70 W3        30.03R
SANTA MARIA    CLOUDY    59  55  87 W3        30.04R
$$
CAZ015-016-271800-
NORTHERN SACRAMENTO VALLEY

CITY           SKY/WX    TMP DP  RH WIND       PRES   REMARKS
REDDING        SUNNY     74  54  49 CALM      29.95F
RED BLUFF      SUNNY     70  55  59 CALM      29.97S
OROVILLE       SUNNY     68  55  63 SW3       29.98S
$$
CAZ016>018-271800-
SOUTHERN SACRAMENTO VALLEY

CITY           SKY/WX    TMP DP  RH WIND       PRES   REMARKS
AUBURN         SUNNY     72  46  40 SW5       30.00R
BEALE AFB      SUNNY     70  52  53 VRB3      29.95R
LINCOLN        FAIR      68  52  56 S6        29.96S
MARYSVILLE     SUNNY     67  55  65 VRB3      29.97R
SAC INTL ARPT  SUNNY     63  54  72 VRB3      29.96R
MATHER AIRPORT SUNNY     66  54  63 S5        29.97S
DOWNTOWN SAC   N/A       69  MM  MM MISG
SAC EXEC ARPT  SUNNY     66  54  65 W5        29.97R
VACAVILLE      SUNNY     68  52  56 VRB3      29.98R
TRAVIS AFB     SUNNY     68  54  60 SW18      29.95R
$$
CAZ019>021-271800-
SAN JOAQUIN VALLEY

CITY           SKY/WX    TMP DP  RH WIND       PRES   REMARKS
STOCKTON       SUNNY     69  55  60 NW5       29.98R
MODESTO        SUNNY     69  54  58 N7        29.97S
MERCED         SUNNY     68  55  63 VRB5      29.98R
LEMOORE        SUNNY     71  54  54 NW9       29.99S
FRESNO         SUNNY     68  54  60 CALM      29.99R
HANFORD        SUNNY     70  54  56 NW6       29.99S
PORTERVILLE    SUNNY     72  55  55 SW6       29.99S
BAKERSFIELD    SUNNY     72  52  49 W5        29.99R
$$
CAZ011-012-071-271800-
NORTHERN MOUNTAINS

CITY           SKY/WX    TMP DP  RH WIND       PRES   REMARKS
YREKA          SUNNY     73  38  27 CALM      30.02S
MOUNT SHASTA   SUNNY     72  46  39 CALM      30.06S
ALTURAS        SUNNY     72  32  23 CALM      30.10S
$$
CAZ011-012-071-271800-
SIERRA NEVADA MTNS

CITY           SKY/WX    TMP DP  RH WIND       PRES   REMARKS
BLUE CANYON    SUNNY     72  23  16 NW5       30.18R
TRUCKEE        SUNNY     57  34  41 CALM      30.22F
TAHOE VLY ARPT SUNNY     67  35  30 VRB5      30.21F
MAMMOTH LAKES  FAIR      68  33  27 SE7       30.29R
$$




USA.gov is the U.S. government's official web portal to all federal, state and local government web resources and services.